SL-4 R/B (55979 NORAD) Tracking and Keplerian Element Data

This shows tracking and keplerian element data for the satellite.

Feedback or suggestion? Click here.




ElementValue
Catalog55979
NameSL-4 R/B
Epoch Orbit43
Epoch Day85.06548711
Epoch Year2023
RAAN339.3581
Inclination97.6428
Eccentricity0.0113801
Argument of Perigee65.8835
Mean Anonmoly40.9818
Mean Motion15.50033499
Decay Rate0.00048308
L11 55979U 23040B 23085.06548711 .00048308 00000+0 65703-3 0 9990
L22 55979 97.6428 339.3581 0113801 65.8835 40.9818 15.50033499 430



Live tracking and technical data element details for SL-4 R/B (NORAD 55979). SL-4 R/B can be tracked NOW for your location showing map with azimuth and elevation plus other details from your city location.







IsCatalogInMostPopularTable: catalog: 55979, numindb: 6
Update: records affected: 1



GetName: 55979 SL-4 R/B

Hit Count: updated at: Tue, 06 Jun 2023 03:23:11 GMT